Commit Graph

181 Commits

Author SHA1 Message Date
GeorgeSG 351ac94c08 Add basic automation for bathroom switch 2020-05-13 21:23:51 +03:00
GeorgeSG 296f2e3169 Add basic bedroom switch automations 2020-05-13 21:02:45 +03:00
GeorgeSG aec357b9b3 Rename switches through UI 2020-05-13 20:51:38 +03:00
GeorgeSG f154422b4d Remove carbon notifications. Streamline telegram messages 2020-05-13 00:51:58 +03:00
GeorgeSG 8255e3c2e3 Simplify github sensors 2020-05-12 23:24:44 +03:00
GeorgeSG 00d8fef34e Add desk switch 2020-05-12 23:24:26 +03:00
GeorgeSG 3cacdb2a34 Don't turn lights on if I'm not home 2020-05-11 20:25:55 +03:00
GeorgeSG 05b867c8e6 Add initial homekit config 2020-05-10 23:11:07 +03:00
GeorgeSG a1fbeb187f Add pc light to github automation 2020-05-10 17:00:59 +03:00
GeorgeSG d4431c25fc Fix avatar white levels 2020-05-10 17:00:47 +03:00
GeorgeSG e051325be5 Add climate control via tasmota-irhvac 2020-05-10 13:26:26 +03:00
GeorgeSG 167f176c6a nits 2020-05-10 13:26:05 +03:00
GeorgeSG 13f2ff8912 More github changes 2020-05-10 03:16:06 +03:00
GeorgeSG fd4613d346 Fix github automation 2020-05-10 02:09:24 +03:00
GeorgeSG 69d53d78d8 Fix template 2020-05-10 01:31:32 +03:00
GeorgeSG 45d8f9cd5b Add github module 2020-05-10 01:28:59 +03:00
GeorgeSG 8c2215a32b Tweak kitchen light on automation 2020-05-09 17:47:52 +03:00
GeorgeSG b506225a00 Update light icons 2020-05-09 17:43:34 +03:00
GeorgeSG 25a045a0c2 Fix quarantine history stats 2020-05-09 17:39:27 +03:00
GeorgeSG 7d8a909f04 Fix wrong light ids after refactor 2020-05-09 11:41:55 +03:00
GeorgeSG 6b5d613de6 Rename all lights with shorter names. Add Ambient light in LR 2020-05-09 03:31:56 +03:00
GeorgeSG c5ef570813 Add ios notifications 2020-05-08 02:18:07 +03:00
GeorgeSG 19d2993390 Fix motion definition 2020-05-06 13:44:01 +03:00
GeorgeSG 9217caba9e yamllint 2020-05-06 04:32:08 +03:00
GeorgeSG 94581b73b9 Define motion sensors. Add new sensors on living room dashboard. 2020-05-06 03:48:43 +03:00
GeorgeSG 81b3323616 Tweak kitchen lighting automations: 2020-05-06 02:36:42 +03:00
GeorgeSG 89297d77cb Add zwave devices 2020-05-06 01:10:45 +03:00
GeorgeSG 6a6f7ade34 Add test cards 2020-05-03 20:13:19 +03:00
GeorgeSG d6ad40a621 Refactor conditions and triggers based on sun 2020-05-03 15:52:26 +03:00
GeorgeSG c0c0beafd0 Tweak kitchen light conditions 2020-05-03 15:48:21 +03:00
GeorgeSG cf611f6cc7 Tweak kitchen light on automation 2020-05-03 15:33:17 +03:00
GeorgeSG d3b10bd4f0 Tweak purifier automations 2020-05-03 13:27:44 +03:00
GeorgeSG c20ea1fc4d Rever spotify config 2020-05-03 12:49:48 +03:00
GeorgeSG 3ce8daa9fc Leave a better trail of dependencies 2020-05-03 12:05:02 +03:00
GeorgeSG cf8b747c42 Remove configurations that are configured with config_flow. Backup 2020-05-03 11:59:26 +03:00
GeorgeSG 347cce19b2 Comment out plex config 2020-05-03 11:38:27 +03:00
GeorgeSG dcdb36633b Dont turn on the entrance lights in the wake up routine 2020-05-03 11:21:31 +03:00
GeorgeSG 095453b76d Update weather friendly names 2020-05-03 02:58:35 +03:00
GeorgeSG 7cea30cb61 Extract and streamline target humidity card 2020-05-03 02:53:00 +03:00
GeorgeSG 7e537db5f6 revert air quality unit of measurement - doesn't look good 2020-05-03 02:43:57 +03:00
GeorgeSG a1a6c4f7a0 Add titanium automation 2020-05-03 02:43:33 +03:00
GeorgeSG d6f5fa0703 Add cobalt and titanium sensors 2020-05-03 02:25:12 +03:00
GeorgeSG f0c2cac988 Add cobalt CPU sensor 2020-05-03 01:59:57 +03:00
GeorgeSG 3c02527c78 Minor tweaks 2020-05-03 01:41:17 +03:00
GeorgeSG 74395b16c8 Request updates of purifier manually 2020-05-03 00:50:59 +03:00
GeorgeSG d36accaabc Rename switch.titanium_power to just titanium 2020-05-03 00:44:15 +03:00
GeorgeSG 8001ec641d Refactor browser_mod to use lights. Plug in routines 2020-05-03 00:42:22 +03:00
GeorgeSG 5917fb5607 Improved Purifier UI and automation 2020-05-03 00:25:38 +03:00
GeorgeSG bb4cc4d4ab use input_select.select_next 2020-05-02 20:19:37 +03:00
GeorgeSG 345f11c374 Always turn on the hallway light on motion 2020-05-02 20:14:29 +03:00